Location: Climax
(33.2048°N, 96.4497°W)
Time: 10:29:22
(UTC+00:00)

Cosmos 1805 Rocket - Pass Details

Date: 06 July 2022
Orbit: 605 x 629 km, 82.5° (Epoch: 09 August)

Event Time Altitude Azimuth Distance (km) Brightness Sun altitude
Exits shadow 09:35:19 42° 211° (SSW) 895 3.9 -18.9°
Maximum altitude 09:36:40 66° 277° (W) 679 3.5 -18.7°
Drops below altitude 10° 09:41:03 10° 0° (N) 1,986 6.8 -18.0°
Sets 09:43:17 0° 3° (N) 2,891 7.7 -17.7°
